ECMWFNIL_500_rhum_021.txt.gz
RH
12 11 11 10 9 9 8 7 7 7 7 6 7 7 6 6 6 6 7 6 6 6 6 6 6 5 6 5 5 5 5 5 5 5 5 5 5 4 4 4 4 4
14 13 13 13 12 11 10 9 8 8 7 7 7 7 7 8 7 7 8 7 8 8 8 8 8 8 7 8 7 6 6 6 6 6 6 5 6 5 5 5 5 5
18 15 13 13 14 14 13 12 11 10 9 9 8 8 8 8 9 9 9 9 10 10 11 11 11 11 11 10 11 10 9 8 8 7 7 7 7 6 7 6 6 6
23 21 19 17 15 15 14 14 13 12 12 11 10 10 11 10 11 11 11 12 12 11 12 12 12 13 13 13 12 12 12 12 11 10 9 9 9 8 8 8 7 7
25 24 23 22 20 18 16 15 15 14 14 13 13 12 12 12 12 12 13 13 13 13 13 14 14 14 14 14 14 13 13 13 13 13 12 11 11 11 10 10 10 9
34 30 27 24 23 21 19 18 17 17 16 15 15 15 14 14 14 14 14 14 14 15 14 14 15 16 15 15 15 14 14 14 14 13 14 13 13 12 12 11 11 11
48 41 36 31 27 25 22 21 20 19 20 19 19 18 17 16 16 15 15 16 15 15 16 17 16 16 17 16 16 16 15 15 15 15 14 14 13 13 13 12 12 12
55 51 47 41 35 31 28 27 25 23 22 22 22 23 22 21 20 19 18 18 19 18 17 18 17 16 16 16 15 16 16 16 16 16 16 15 15 14 14 14 13 12
46 47 47 44 41 39 38 36 33 30 29 26 24 24 25 24 23 22 22 21 20 20 18 16 15 14 12 12 11 11 12 12 12 13 14 14 15 15 15 14 14 13
42 41 41 41 39 39 38 36 32 29 29 31 31 28 24 24 23 20 20 21 20 19 18 16 13 13 11 9 9 8 7 8 8 8 9 10 10 11 12 12 13 13
44 43 43 41 38 35 33 31 28 24 23 27 31 34 30 26 25 23 21 21 23 21 20 19 17 15 13 11 9 9 8 7 7 7 6 7 7 7 7 8 9 9
49 46 45 42 41 38 35 33 27 21 23 26 26 29 34 33 29 29 28 26 26 26 24 23 22 17 14 13 12 10 9 8 7 7 7 6 6 6 5 5 5 6
51 42 34 29 29 28 26 26 21 15 24 37 34 28 32 36 33 31 33 33 30 29 29 27 24 19 15 14 12 9 8 8 7 7 6 6 5 5 5 5 5 4
38 34 30 26 23 20 17 15 11 7 16 34 42 38 34 37 41 43 44 44 40 35 34 31 25 20 18 15 11 9 8 8 7 7 6 6 5 5 5 5 5 4
21 23 29 29 23 18 16 16 13 7 7 19 34 37 32 32 39 40 40 45 50 46 41 35 27 22 20 15 10 8 8 8 7 7 6 6 6 6 6 5 5 5
23 34 42 42 37 31 19 11 12 10 5 8 20 26 22 20 22 23 25 37 53 57 47 35 27 25 22 15 10 9 8 8 7 7 7 7 7 6 6 6 6 6
27 51 72 76 71 67 54 28 11 11 8 6 15 25 24 16 16 21 26 36 55 65 52 35 28 27 22 15 11 10 9 8 8 8 8 7 7 6 7 7 7 7
10 27 63 91 95 93 90 63 27 13 11 9 15 24 26 22 24 30 30 36 58 69 53 36 31 28 22 16 12 11 9 9 9 8 8 8 7 7 7 8 8 8
9 5 26 69 98 103 99 83 59 37 20 9 10 16 23 27 32 37 35 42 64 71 53 38 34 28 22 17 13 12 11 10 9 8 8 8 8 8 9 9 10 11
12 8 6 24 61 93 100 88 77 61 38 22 18 18 19 21 24 30 37 54 76 74 52 38 35 29 23 18 16 14 13 11 10 9 8 9 9 10 11 12 13 14
8 11 10 3 20 65 92 86 79 72 56 47 43 35 26 24 26 29 42 67 85 74 51 40 36 29 23 20 18 17 15 14 12 10 10 10 11 12 14 15 17 18
8 8 13 8 8 27 45 52 61 67 56 45 45 45 36 33 37 37 46 69 80 66 50 42 36 29 25 23 22 19 17 16 14 13 13 13 14 16 17 19 21 21
10 10 14 18 19 19 18 19 27 36 35 32 44 57 50 42 44 43 46 64 73 62 50 43 36 31 29 27 25 23 20 18 17 16 17 19 20 22 23 24 24 21
7 12 18 23 24 25 24 23 22 24 24 23 36 54 53 47 51 50 48 59 68 61 52 44 37 35 36 34 32 28 23 21 21 23 25 26 27 28 28 25 21 17
6 11 21 29 32 34 38 44 47 47 37 25 29 43 51 61 74 75 72 73 70 65 61 53 46 45 44 40 35 30 28 29 31 32 32 31 30 28 25 21 15 11
12 14 20 30 38 45 52 56 58 58 48 35 32 35 45 67 87 92 93 88 74 67 68 60 52 48 44 41 39 38 39 39 38 35 31 29 27 22 17 13 9 7

ECMWFNIL_500_rhum_024.txt.gz
RH
15 14 13 11 10 9 8 7 7 6 6 6 6 6 6 6 6 6 5 5 5 5 5 5 5 5 5 4 5 5 5 5 4 5 4 4 4 4 4 4 4 4
20 19 18 17 15 14 12 10 9 9 8 8 8 7 7 7 6 7 6 6 6 6 6 6 5 6 6 6 5 5 5 5 5 6 5 5 6 6 6 5 5 5
22 21 22 22 22 20 18 15 12 11 11 10 10 10 9 8 8 8 8 7 8 8 8 8 7 7 7 7 8 8 7 7 7 7 7 7 7 7 7 8 7 7
26 24 23 23 23 23 23 22 19 16 15 13 13 12 11 11 10 9 9 9 9 10 9 9 10 10 10 10 10 10 10 10 10 10 10 10 10 10 9 9 9 9
41 35 32 29 26 25 24 24 24 22 20 18 16 15 14 13 12 12 12 12 12 12 12 12 12 11 12 12 12 12 12 12 12 12 12 12 12 12 12 12 12 11
52 47 44 41 37 35 32 30 28 26 25 23 20 19 17 16 15 14 14 14 14 14 13 13 13 13 13 13 13 14 13 13 14 13 14 14 14 13 13 13 13 13
51 49 48 48 46 44 43 40 36 32 29 26 23 22 20 20 20 19 18 18 17 17 16 16 15 15 15 15 15 15 15 15 15 16 15 15 15 15 15 15 14 14
55 55 56 51 45 43 43 43 42 39 35 31 28 27 27 26 25 25 24 24 23 22 20 19 19 18 18 18 18 18 18 18 16 16 16 15 15 15 14 14 14 14
64 63 60 52 47 46 43 40 39 38 35 33 30 29 28 27 27 27 27 27 27 27 26 24 23 22 21 21 21 19 18 17 16 15 14 13 13 12 12 12 12 12
73 68 61 56 56 54 45 37 36 36 36 34 31 28 24 22 22 22 24 26 26 25 26 27 25 25 24 23 22 22 21 20 19 18 16 14 13 11 10 10 10 10
66 65 62 61 62 59 49 39 32 31 32 33 34 33 29 25 21 19 20 22 24 24 23 25 26 25 25 27 27 27 27 28 27 25 22 16 13 11 10 9 8 8
53 54 52 51 49 46 46 44 38 34 31 29 30 31 30 27 24 24 23 19 19 23 23 22 24 25 25 28 31 33 33 35 35 34 29 20 14 12 11 9 8 7
47 43 38 35 29 26 31 34 31 28 24 21 19 21 25 27 25 25 23 17 15 22 28 26 24 26 29 31 33 32 32 34 37 39 36 27 18 13 10 9 7 7
33 30 27 23 19 18 18 17 22 31 35 31 22 15 15 17 19 21 19 14 11 15 25 33 32 29 31 34 30 23 22 27 33 39 39 33 25 17 11 8 7 7
22 22 21 18 16 17 14 13 30 54 70 72 64 54 42 27 18 18 15 13 13 10 14 27 33 30 26 24 21 16 14 18 25 31 36 35 31 22 12 8 7 7
17 17 17 16 17 20 20 19 25 40 66 90 98 96 87 66 49 39 28 19 15 7 7 16 22 23 20 16 15 15 14 13 19 29 36 37 36 30 17 9 8 7
17 16 15 14 14 15 16 17 16 18 37 67 86 93 92 85 80 75 65 57 46 23 7 8 15 20 23 19 16 17 17 15 19 32 43 44 41 36 23 11 8 9
17 15 15 15 14 13 12 12 13 12 13 23 39 54 67 76 82 83 81 82 77 53 22 11 14 18 20 19 17 19 21 18 19 32 46 49 45 39 26 12 9 10
16 15 15 14 13 14 13 11 11 12 11 11 12 18 34 58 78 87 83 71 61 50 32 19 16 16 16 16 15 17 18 16 22 36 47 49 46 38 24 13 11 13
17 16 15 15 14 13 13 13 11 11 11 11 11 9 12 29 53 76 84 73 58 50 43 34 28 23 21 18 16 18 19 18 28 43 48 46 42 33 21 14 13 15
18 17 16 16 15 14 13 13 12 12 12 10 11 11 8 15 35 57 75 83 74 59 50 43 34 25 22 23 24 26 27 27 34 47 51 45 36 26 19 17 17 17
18 18 17 15 14 14 14 13 11 11 12 10 9 13 17 25 37 53 77 97 89 68 53 42 28 19 20 27 32 33 34 33 34 45 53 44 30 23 21 21 22 22
17 16 16 15 15 14 12 13 14 13 14 12 10 12 17 21 24 31 49 64 61 48 38 26 19 17 20 28 37 38 37 35 33 43 51 41 27 25 26 25 25 24
16 15 14 13 13 13 12 12 13 11 12 12 11 13 15 14 15 18 21 24 23 22 21 18 18 18 13 17 29 37 42 44 44 48 49 40 31 30 29 27 26 23
14 13 12 11 10 10 10 9 10 18 30 33 35 43 48 46 43 38 32 28 26 27 30 31 29 24 17 18 28 40 49 55 58 57 53 47 41 34 31 30 28 25
13 10 8 8 7 6 7 6 12 32 54 66 68 68 68 67 63 56 53 53 50 45 43 41 36 34 32 29 34 49 60 63 63 58 50 46 42 35 33 34 32 29

ECMWFNIL_500_rhum_030.txt.gz
RH
27 25 23 21 18 17 17 16 15 13 12 10 10 9 8 8 7 7 7 6 6 6 6 7 6 7 7 6 6 6 6 5 5 5 5 4 4 4 4 4 3 4
33 35 37 36 34 30 28 27 26 24 22 19 17 15 13 12 10 9 9 8 8 8 7 7 7 7 7 7 7 7 7 7 6 7 7 6 6 6 5 5 5 5
34 39 44 43 41 37 35 35 34 32 30 27 25 22 19 18 16 14 12 11 10 10 9 9 9 8 7 8 8 8 8 8 8 8 8 8 8 8 7 7 7 7
42 47 49 47 43 41 40 39 38 36 35 32 30 28 26 23 21 20 18 16 14 13 12 11 11 10 10 9 8 9 9 9 10 10 10 10 10 10 10 10 10 11
55 58 56 52 45 43 45 45 44 42 41 40 37 35 32 30 27 25 22 21 19 17 15 15 14 12 12 12 11 11 11 10 11 11 11 11 11 11 12 13 13 12
69 71 66 58 49 48 52 52 51 48 45 44 42 41 40 38 35 33 30 27 24 22 20 18 17 16 14 13 13 13 13 13 13 13 13 13 14 14 14 14 14 14
76 78 73 66 56 54 57 55 51 48 45 43 42 44 45 44 42 40 37 34 31 28 25 22 20 19 18 17 16 15 15 15 14 14 15 15 15 15 15 16 15 15
70 72 73 73 67 60 59 58 52 49 47 45 44 45 47 47 46 44 42 40 36 32 28 26 24 22 21 20 20 19 19 18 17 17 17 17 17 17 17 17 17 17
79 78 80 80 76 69 65 64 61 57 53 50 48 47 47 47 43 40 40 39 37 35 31 29 28 28 28 27 26 26 25 24 23 22 21 20 19 19 19 19 19 19
83 84 90 91 86 79 73 71 70 69 66 62 56 49 47 47 43 38 36 36 37 37 37 38 37 35 34 34 35 34 33 33 32 31 30 28 25 23 22 22 22 21
73 77 89 94 93 90 85 81 79 77 74 71 68 64 59 50 40 34 31 34 39 38 39 43 45 46 45 42 41 39 35 33 33 33 33 32 32 31 27 25 24 22
67 75 86 89 89 89 87 86 85 79 73 69 67 70 69 56 49 53 51 46 49 54 60 60 52 49 49 47 45 45 43 39 37 37 35 31 31 34 34 32 27 24
61 68 78 83 86 85 82 83 87 83 75 69 63 60 59 52 55 69 70 60 57 64 75 81 74 63 57 54 50 45 43 43 41 37 32 27 25 28 34 38 37 33
76 76 76 78 80 77 73 74 84 88 82 78 75 65 55 49 50 59 59 54 53 53 57 70 78 76 71 70 70 64 58 59 60 52 43 35 28 22 23 28 33 37
81 83 79 75 70 67 66 65 71 79 76 72 73 70 63 55 50 51 49 46 46 44 43 48 53 56 57 59 67 73 68 63 62 61 60 58 52 42 34 26 19 19
58 64 66 63 57 57 64 68 70 73 69 62 61 59 58 54 47 44 43 38 34 32 32 33 29 26 27 29 36 43 44 41 39 40 43 47 48 46 48 49 41 33
38 42 44 44 41 40 47 56 65 74 75 69 61 53 48 47 46 47 47 43 44 49 51 52 53 44 32 26 23 21 23 25 26 28 28 28 29 28 33 51 65 66
26 26 27 28 28 28 31 37 52 74 85 77 66 57 51 49 48 54 56 50 52 59 57 55 63 60 44 32 24 17 16 17 17 20 21 21 24 23 21 34 56 69
27 26 24 24 24 24 27 30 40 63 77 71 59 51 45 41 39 41 44 39 36 38 35 29 32 33 27 24 22 17 17 17 14 16 16 15 17 18 18 24 33 48
29 27 25 25 25 24 25 25 27 35 42 42 39 33 28 26 24 23 23 23 22 21 21 21 20 20 20 20 19 17 15 15 14 13 13 14 15 14 15 19 20 29
29 28 27 26 26 25 24 24 24 23 23 22 22 21 21 19 19 19 18 17 18 16 16 16 15 16 16 15 15 16 15 15 15 14 13 12 13 13 12 15 15 18
30 31 30 30 29 29 27 27 26 24 23 22 21 20 21 19 18 19 18 17 17 16 16 17 16 15 16 15 15 15 14 15 14 14 15 13 13 13 10 13 24 29
32 32 32 32 32 31 30 30 30 28 26 25 25 24 23 23 22 21 21 21 20 19 19 19 18 18 17 17 17 16 16 17 16 14 15 13 12 14 11 13 30 43
36 35 35 34 34 33 33 32 31 31 30 28 28 27 25 25 24 23 23 22 21 22 21 20 20 21 20 19 19 19 16 15 14 13 13 13 13 15 13 10 13 18
40 39 38 37 37 35 34 33 31 31 31 29 29 28 27 27 26 25 24 23 22 21 20 20 20 18 18 18 16 15 16 17 15 13 15 22 27 28 26 22 20 18
43 43 41 40 40 38 37 36 35 34 33 32 31 30 28 28 26 25 24 23 22 22 20 20 19 17 18 18 15 19 31 39 38 36 37 41 46 47 46 44 39 35

ECMWFNIL_500_rhum_033.txt.gz
RH
38 29 24 23 21 19 20 23 23 20 19 19 17 16 14 12 10 8 7 7 6 6 6 5 6 6 5 6 5 5 5 4 4 4 4 4 4 4 4 4 3 4
48 37 28 27 28 29 31 33 34 32 29 27 26 25 22 19 17 14 12 11 9 8 8 7 7 7 6 6 6 6 6 5 5 5 5 5 5 5 4 4 4 4
59 49 37 29 28 28 33 40 41 38 35 32 31 30 28 26 23 22 19 17 15 12 11 10 9 9 8 7 7 7 6 6 6 6 6 6 6 6 6 5 6 5
61 54 46 38 32 29 34 43 45 42 38 36 35 33 32 30 27 26 24 22 20 18 16 14 13 11 11 10 9 8 7 7 7 6 7 7 7 7 7 7 7 7
60 56 54 50 45 42 44 49 49 45 42 39 39 39 37 36 35 32 30 28 25 23 22 19 17 15 14 13 12 11 10 9 8 8 8 8 8 9 9 10 10 10
67 63 62 61 57 53 53 55 54 49 45 43 42 43 43 42 41 40 38 37 34 32 29 25 23 20 18 17 15 14 13 12 11 11 10 10 10 10 11 11 12 13
73 66 63 64 63 60 58 58 59 55 50 48 46 46 46 45 47 48 46 45 43 41 39 35 31 26 23 21 19 17 16 15 14 13 13 13 12 12 12 12 13 13
81 79 74 70 66 65 63 58 59 60 56 53 51 47 45 45 48 51 50 49 48 46 44 41 38 33 29 25 22 21 20 19 18 17 16 16 15 15 14 14 15 15
83 93 91 87 81 76 74 67 64 63 60 58 57 52 49 48 47 46 48 50 50 48 46 45 42 37 33 30 26 25 24 23 23 22 21 20 19 19 19 17 18 18
87 99 98 98 92 83 85 88 81 71 64 63 62 58 56 56 52 49 51 56 56 51 48 49 48 43 37 34 31 30 30 29 28 28 28 28 26 24 24 23 22 22
81 95 99 100 92 83 89 97 93 85 76 70 67 65 63 62 61 60 58 61 61 55 50 51 53 52 48 44 39 37 38 36 34 33 30 29 29 28 27 27 27 27
75 91 97 98 93 88 86 86 88 92 89 80 76 78 78 72 69 68 65 64 65 62 57 52 52 55 56 54 50 45 44 41 40 40 37 34 31 27 26 26 27 27
67 80 86 89 90 86 81 77 76 82 87 86 81 82 86 83 79 75 68 61 59 60 60 55 53 58 62 62 63 65 65 60 50 44 43 41 37 33 31 31 30 29
36 44 52 62 70 74 76 77 75 72 77 84 84 82 83 84 84 80 70 61 57 54 56 59 59 58 58 59 63 69 75 79 75 68 60 54 50 45 39 36 38 40
27 28 33 42 54 66 74 81 83 81 78 77 78 78 77 75 75 69 58 56 60 60 61 64 62 56 54 55 55 52 53 61 71 78 79 74 69 67 64 60 57 55
29 29 31 34 40 47 54 63 72 79 82 79 75 73 69 64 60 54 47 48 57 65 67 62 58 59 59 59 62 60 50 43 43 48 53 55 51 50 53 54 49 44
34 32 31 29 29 28 30 35 39 47 62 71 72 67 60 53 48 44 47 50 55 62 63 54 56 69 72 69 78 83 73 62 59 55 53 54 51 43 35 32 29 27
34 35 35 33 32 31 29 29 28 29 35 42 45 44 40 38 35 34 37 40 43 50 53 50 55 65 69 71 77 78 72 68 67 62 55 52 49 43 34 28 26 23
39 37 38 37 36 36 33 31 30 29 28 27 28 26 24 23 24 26 26 25 27 31 35 45 54 53 50 53 54 51 48 47 44 41 35 29 25 25 23 21 21 20
70 60 56 56 58 58 51 43 38 34 31 29 27 25 23 22 21 22 22 20 21 18 18 33 49 46 37 36 35 32 29 27 24 23 20 17 17 17 16 15 15 15
98 95 92 92 91 85 74 62 53 47 41 38 36 31 28 26 24 24 24 22 21 18 16 23 32 30 26 24 23 22 20 18 18 17 15 15 15 14 13 14 14 13
77 84 88 87 81 74 64 55 48 45 42 39 36 32 29 27 26 24 24 22 21 20 19 20 21 19 19 19 17 17 17 17 16 16 15 16 15 16 17 16 16 15
42 45 47 47 45 42 39 37 35 33 32 30 30 29 28 27 26 25 25 24 23 22 21 20 19 18 17 17 17 18 18 17 17 17 18 18 18 18 18 18 19 19
36 35 35 34 34 34 34 34 33 31 31 31 30 29 29 28 28 28 27 25 24 24 23 22 20 20 20 19 20 20 20 20 20 20 20 20 20 19 19 19 18 16
43 42 41 40 40 40 39 39 38 37 37 35 34 33 33 31 30 31 30 29 28 27 25 25 24 23 22 22 22 22 23 23 22 21 21 20 20 19 18 18 18 17
48 47 48 48 47 47 46 45 44 42 40 39 38 37 36 34 33 33 33 31 30 29 29 28 27 26 25 25 25 24 24 24 23 23 22 20 19 19 18 17 16 14

ECMWFNIL_500_rhum_036.txt.gz
RH
28 29 29 32 36 31 24 21 20 18 15 15 14 13 13 12 13 12 11 10 9 8 7 6 6 5 5 6 5 5 5 5 5 5 5 5 5 4 5 5 4 4
33 34 36 38 42 42 35 27 25 24 22 23 24 24 23 21 21 20 20 18 16 14 12 10 9 8 7 7 7 6 6 6 6 6 6 6 6 6 5 5 5 5
37 41 45 47 49 52 48 37 30 27 25 27 31 35 34 31 29 29 27 26 24 22 20 17 14 12 11 9 9 8 7 7 7 7 7 6 7 7 6 7 6 6
41 49 55 58 58 58 54 47 39 32 28 29 35 40 40 38 35 33 32 31 29 28 25 23 21 18 16 13 12 11 10 10 9 8 8 8 7 7 7 7 7 7
43 54 61 64 63 59 56 53 47 40 35 35 41 46 45 42 40 38 38 36 34 33 31 28 26 23 22 20 17 15 12 12 11 10 10 9 9 9 9 9 9 9
51 58 62 68 69 67 66 64 58 52 47 44 46 49 48 46 44 42 42 42 40 39 37 34 33 30 28 26 24 21 18 16 14 13 12 12 11 11 11 11 11 11
59 59 65 75 79 76 74 72 69 63 59 55 53 53 51 48 48 47 47 45 42 41 40 38 37 36 34 33 31 28 25 22 19 17 15 14 14 13 13 13 13 13
74 69 76 85 88 89 85 78 74 71 66 63 62 61 57 54 53 52 50 47 44 43 43 43 42 40 39 38 37 34 31 29 26 23 20 18 16 16 15 15 15 15
79 78 86 93 89 89 92 91 87 84 79 73 69 67 65 62 59 58 57 52 47 46 48 49 47 45 43 41 39 38 35 33 30 27 25 23 22 20 19 18 18 18
84 85 94 99 90 82 89 97 97 95 93 89 83 78 74 70 65 64 64 59 54 53 52 52 51 51 50 46 42 39 38 37 35 31 28 26 25 24 23 23 23 23
93 93 95 98 93 88 92 99 99 96 93 94 95 95 92 85 76 75 74 67 62 58 55 56 59 60 59 56 50 45 43 41 39 36 34 34 34 33 31 30 29 28
80 85 88 86 84 85 90 97 98 92 88 89 94 98 96 87 80 80 78 71 66 66 68 68 68 71 72 70 66 60 56 55 53 48 41 35 34 35 35 34 33 32
51 57 63 65 68 72 76 79 80 84 93 96 94 96 93 82 74 71 72 80 85 86 89 85 78 75 72 68 68 69 66 67 71 69 61 50 43 42 45 46 42 37
38 38 37 39 44 47 49 49 48 58 77 85 87 96 98 82 68 59 61 78 92 94 96 92 81 78 78 78 81 79 69 67 72 73 68 63 62 62 64 67 67 62
37 37 35 34 34 33 33 34 32 32 41 47 54 68 74 64 59 63 68 77 82 81 81 78 72 75 84 90 93 87 76 72 76 77 70 65 62 60 60 62 68 74
34 34 33 32 33 33 32 32 33 30 29 30 31 36 41 39 44 61 76 83 81 73 68 66 66 69 72 72 74 76 74 70 72 78 78 72 67 63 63 64 60 57
33 32 31 30 29 30 30 29 30 30 29 30 30 30 31 30 28 35 48 57 61 61 58 54 55 58 57 52 48 51 57 56 57 65 70 70 72 74 77 81 77 65
30 29 28 27 26 26 27 26 25 26 26 28 30 31 31 31 29 27 29 31 32 35 35 32 33 40 41 37 32 32 37 39 40 48 54 57 61 64 65 69 70 66
27 27 26 26 25 24 24 24 23 24 24 24 25 27 28 29 30 30 29 29 28 27 27 24 24 28 28 25 24 23 23 24 24 27 33 37 40 41 43 46 46 45
30 29 29 29 28 27 28 30 31 32 32 32 30 29 27 27 29 29 28 30 29 26 26 26 25 25 24 22 20 19 19 20 19 18 18 21 23 23 25 28 28 28
36 36 35 35 34 34 36 44 55 63 64 62 57 52 47 41 36 35 36 36 32 30 33 37 35 31 28 25 24 23 22 21 21 21 20 18 18 17 18 19 18 18
38 37 37 37 38 38 40 54 76 91 94 93 91 86 79 67 56 53 55 54 51 51 52 50 46 42 36 32 30 28 26 25 23 23 22 21 20 18 17 16 16 15
41 41 41 39 39 38 38 45 61 72 78 85 91 94 94 89 80 74 73 69 65 63 59 52 48 44 38 33 31 29 27 25 23 22 22 21 20 19 18 17 17 16
32 37 41 42 43 43 41 39 41 43 46 51 58 64 71 73 69 62 58 52 49 48 45 41 38 34 30 28 27 26 25 24 23 23 23 22 21 21 20 19 19 18
18 21 26 32 38 42 44 44 44 42 40 40 41 42 44 45 43 39 36 33 32 32 31 30 29 27 27 27 26 26 26 25 25 24 24 24 24 23 22 22 22 21
21 19 18 19 22 27 32 36 39 42 43 44 43 41 40 41 40 39 36 34 32 30 29 29 29 28 29 28 28 29 28 27 28 28 27 27 26 26 26 25 24 23